Location: Navalespino
(40.5894°N, 4.2660°W)
Time: 11:00:44
(UTC+00:00)

CENTAUR R/B - Pass Details

Date: 18 April 2024
Orbit: 669 x 1515 km, 63.4° (Epoch: 27 May)

Event Time Altitude Azimuth Distance (km) Brightness Sun altitude
Rises 21:31:20 0° 328° (NNW) 4,138 7.0 -25.7°
Reaches altitude 10° 21:34:14 10° 336° (NNW) 3,286 6.1 -26.1°
Maximum altitude 21:41:48 38° 43° (NE) 2,036 4.1 -27.1°
Enters shadow 21:45:04 30° 82° (E) 2,391 4.2 -27.5°
